Location: Auckland
(36.8670°S, 174.7670°E)
Time: 18:56:54
(UTC+13:00)

NOSS 2-1 (E) - Pass Details

Date: 24 January 2019
Orbit: 478 x 1726 km, 63.3° (Epoch: 12 February)

Event Time Altitude Azimuth Distance (km) Brightness Sun altitude
Rises 22:49:18 0° 212° (SSW) 4,374 9.3 -21.9°
Reaches altitude 10° 22:52:35 10° 209° (SSW) 3,201 8.3 -22.4°
Maximum altitude 23:00:04 68° 126° (SE) 1,025 4.5 -23.3°
Enters shadow 23:01:33 50° 65° (ENE) 1,136 4.4 -23.5°
